Location: Laas
(43.4693°N, 0.3073°E)
Time: 15:51:10
(UTC+00:00)

Cosmos 1709 Rocket - Pass Details

Date: 25 October 2020
Orbit: 949 x 1001 km, 82.9° (Epoch: 23 November)

Event Time Altitude Azimuth Distance (km) Brightness Sun altitude
Rises 18:41:49 0° 358° (N) 3,723 7.1 -19.2°
Reaches altitude 10° 18:44:32 10° 5° (N) 2,775 6.3 -19.7°
Maximum altitude 18:50:31 41° 75° (ENE) 1,414 4.4 -20.8°
Enters shadow 18:51:45 37° 102° (ESE) 1,497 4.4 -21.0°
